FW6272 Weather Reports


time (UTC)temp
C
wind
direction
speed
KPH
gust
KPH
rain 1hr
cm
rain 24hr
cm
rain mn
cm
humidity
%
barometer
mb
20260503181203 13 53 4.8 20.9 0.00 0.00 0.00 42 1012.5
20260503180203 13 75 3.2 11.3 0.00 0.00 0.00 42 1012.5
20260503175702 13 194 4.8 24.1 0.00 0.00 0.00 44 1012.5
20260503175202 13 154 3.2 16.1 0.00 0.00 0.00 45 1012.8
20260503174702 13 219 4.8 20.9 0.00 0.00 0.00 44 1012.5
20260503173202 13 220 4.8 20.9 0.00 0.00 0.00 44 1012.5
20260503172203 12 202 4.8 20.9 0.00 0.00 0.00 44 1012.7
20260503171702 12 243 3.2 11.3 0.00 0.00 0.00 46 1012.6
20260503171202 12 227 3.2 16.1 0.00 0.00 0.00 45 1012.9
20260503160202 11 205 3.2 11.3 0.00 0.00 0.00 48 1013.0
20260503150702 11 122 1.6 16.1 0.00 0.00 0.00 49 1012.9
20260503150202 11 62 4.8 20.9 0.00 0.00 0.00 48 1013.0
20260503140203 10 3 3.2 20.9 0.00 0.00 0.00 53 1012.9
20260503131204 9 340 4.8 16.1 0.00 0.00 0.00 56 1012.9
20260503130703 9 88 3.2 16.1 0.00 0.00 0.00 57 1013.0
20260503130203 8 258 8.0 27.4 0.00 0.00 0.00 58 1012.9
20260503110703 7 350 3.2 8.0 0.00 0.00 0.00 62 1012.2
20260503110203 7 98 1.6 8.0 0.00 0.00 0.00 61 1012.1
20260503081203 7 32 3.2 11.3 0.00 0.00 0.00 61 1010.5
20260503080703 7 83 0.0 3.2 0.00 0.00 0.00 63 1010.2
20260503080203 7 81 0.0 8.0 0.00 0.00 0.00 64 1010.3
20260503072702 7 110 0.0 0.0 0.00 0.00 0.00 64 1010.2
20260503070703 8 104 0.0 0.0 0.00 0.00 0.00 65 1010.5
20260503070202 8 345 1.6 8.0 0.00 0.00 0.00 63 1010.4
20260503060204 9 92 0.0 3.2 0.00 0.00 0.00 58 1010.5
20260503054702 9 77 0.0 8.0 0.00 0.00 0.00 57 1010.8
20260503054203 9 81 1.6 8.0 0.00 0.00 0.00 58 1010.8
20260503053704 9 95 0.0 3.2 0.00 0.00 0.00 57 1010.8
20260503053203 9 101 0.0 0.0 0.00 0.00 0.00 59 1010.8
20260503052702 9 98 0.0 3.2 0.00 0.00 0.00 58 1010.5
20260503052202 9 45 1.6 8.0 0.00 0.00 0.00 57 1010.8
20260503051702 9 89 0.0 0.0 0.00 0.00 0.00 57 1010.8
20260503051202 9 128 0.0 0.0 0.00 0.00 0.00 57 1010.8
20260503050703 9 135 0.0 0.0 0.00 0.00 0.00 60 1010.8
20260503050203 9 132 0.0 3.2 0.00 0.00 0.00 57 1010.8
20260503045703 9 164 0.0 8.0 0.00 0.00 0.00 58 1010.9
20260503045203 9 109 0.0 0.0 0.00 0.00 0.00 59 1010.8
20260503044702 9 111 0.0 0.0 0.00 0.00 0.00 57 1010.9
20260503043203 9 151 0.0 0.0 0.00 0.00 0.00 59 1011.5
20260503041203 9 110 0.0 3.2 0.00 0.00 0.00 58 1011.2
20260503040202 10 110 0.0 0.0 0.00 0.00 0.00 64 1011.5
20260503035203 10 110 0.0 0.0 0.00 0.00 0.00 64 1011.5
20260503034702 10 105 0.0 0.0 0.00 0.00 0.00 62 1011.2
20260503034203 10 112 0.0 0.0 0.00 0.00 0.00 62 1011.5
20260503033702 10 112 0.0 0.0 0.00 0.00 0.00 60 1011.5
20260503032704 10 110 0.0 0.0 0.00 0.00 0.00 56 1011.2
20260503032203 10 110 0.0 0.0 0.00 0.00 0.00 57 1011.2
20260503031703 10 78 0.0 3.2 0.00 0.00 0.00 57 1011.2
20260503031202 11 57 0.0 3.2 0.00 0.00 0.00 58 1011.1
20260503030703 11 72 0.0 8.0 0.00 0.00 0.00 55 1011.2
20260503030202 11 65 0.0 3.2 0.00 0.00 0.00 54 1011.2
20260503025702 11 91 0.0 8.0 0.00 0.00 0.00 53 1011.3
20260503025203 11 107 0.0 3.2 0.00 0.00 0.00 58 1011.2
20260503024202 11 107 0.0 3.2 0.00 0.00 0.00 56 1011.2
20260503023703 11 109 0.0 0.0 0.00 0.00 0.00 56 1011.2
20260503023203 11 109 0.0 3.2 0.00 0.00 0.00 53 1011.5
20260503022703 11 122 0.0 0.0 0.00 0.00 0.00 52 1011.2
20260503022204 11 153 0.0 8.0 0.00 0.00 0.00 53 1011.5
20260503021704 11 132 0.0 0.0 0.00 0.00 0.00 55 1011.2
20260503021203 11 123 0.0 3.2 0.00 0.00 0.00 54 1011.7
20260503020703 11 140 0.0 0.0 0.00 0.00 0.00 54 1011.2
20260503020203 11 158 0.0 0.0 0.00 0.00 0.00 54 1011.2
20260503015704 11 175 0.0 0.0 0.00 0.00 0.00 54 1011.2
20260503015203 11 113 0.0 0.0 0.00 0.00 0.00 53 1011.2
20260503014703 12 108 0.0 3.2 0.00 0.00 0.00 52 1011.2
20260503014202 12 171 0.0 8.0 0.00 0.00 0.00 54 1011.2
20260503013702 12 137 0.0 3.2 0.00 0.00 0.00 54 1011.4
20260503013203 12 125 0.0 3.2 0.00 0.00 0.00 53 1011.2
20260503012703 12 111 0.0 0.0 0.00 0.00 0.00 59 1011.2
20260503012202 12 90 0.0 3.2 0.00 0.00 0.00 53 1011.4
20260503011702 12 66 0.0 3.2 0.00 0.00 0.00 49 1011.2
20260503010703 12 182 0.0 11.3 0.00 0.00 0.00 48 1011.2
20260503010203 12 239 3.2 11.3 0.00 0.00 0.00 47 1011.1
20260503005702 12 195 0.0 3.2 0.00 0.00 0.00 48 1010.8
20260503004704 12 136 0.0 3.2 0.00 0.00 0.00 46 1010.8
20260503004203 12 175 0.0 3.2 0.00 0.00 0.00 47 1010.8
20260503003203 12 137 0.0 8.0 0.00 0.00 0.00 46 1010.7
20260503002703 12 104 3.2 8.0 0.00 0.00 0.00 46 1010.8
20260503002203 12 57 3.2 8.0 0.00 0.00 0.00 47 1010.8
20260503001202 12 172 0.0 3.2 0.00 0.00 0.00 47 1010.5
20260503000703 13 97 0.0 11.3 0.00 0.00 0.00 47 1010.5
20260503000204 13 257 1.6 8.0 0.00 0.00 0.00 48 1010.6
20260502235704 13 85 1.6 8.0 0.00 0.00 0.00 50 1010.5
20260502235203 13 110 0.0 0.0 0.00 0.00 0.00 53 1010.5
20260502234703 13 110 0.0 0.0 0.00 0.00 0.00 53 1010.5
20260502234203 13 110 0.0 3.2 0.00 0.00 0.00 52 1010.2
20260502233703 13 83 0.0 3.2 0.00 0.00 0.00 46 1010.2
20260502233203 13 137 0.0 0.0 0.00 0.00 0.00 46 1010.4
20260502232703 14 210 0.0 3.2 0.00 0.00 0.00 45 1010.5
20260502232203 14 79 1.6 8.0 0.00 0.00 0.00 46 1010.5
20260502231703 14 137 0.0 0.0 0.00 0.00 0.00 44 1010.5
20260502231203 14 157 0.0 8.0 0.00 0.00 0.00 43 1010.6
20260502230703 14 216 1.6 8.0 0.00 0.00 0.00 45 1010.2
20260502230202 14 107 0.0 8.0 0.00 0.00 0.00 45 1010.5
20260502225703 15 148 0.0 3.2 0.00 0.00 0.00 45 1010.5
20260502225203 15 158 0.0 3.2 0.00 0.00 0.00 45 1010.2
20260502224704 15 201 0.0 3.2 0.00 0.00 0.00 42 1010.3
20260502224202 15 198 3.2 8.0 0.00 0.00 0.00 42 1010.3
20260502223703 15 157 0.0 8.0 0.00 0.00 0.00 45 1010.2
20260502223202 15 215 1.6 8.0 0.00 0.00 0.00 43 1010.2
20260502222703 15 351 4.8 16.1 0.00 0.00 0.00 43 1010.5
20260502221702 15 189 1.6 11.3 0.00 0.00 0.00 41 1010.2
20260502221204 15 92 1.6 16.1 0.00 0.00 0.00 41 1010.2
20260502220703 15 100 0.0 11.3 0.00 0.00 0.00 41 1010.2
20260502220203 15 74 1.6 24.1 0.00 0.00 0.00 41 1010.2
20260502215702 15 0 1.6 8.0 0.00 0.00 0.00 41 1010.2
20260502215203 15 164 1.6 8.0 0.00 0.00 0.00 43 1010.3
20260502214202 15 116 0.0 3.2 0.00 0.00 0.00 45 1010.2
20260502213703 15 160 0.0 11.3 0.00 0.00 0.00 45 1010.2
20260502213203 15 36 1.6 8.0 0.00 0.00 0.00 46 1010.2
20260502212702 16 27 3.2 8.0 0.00 0.00 0.00 46 1010.2
20260502212203 16 335 3.2 11.3 0.00 0.00 0.00 46 1010.2
20260502211203 16 53 4.8 20.9 0.00 0.00 0.00 43 1010.2
20260502210703 16 6 6.4 16.1 0.00 0.00 0.00 43 1010.0
20260502210203 16 93 1.6 11.3 0.00 0.00 0.00 44 1009.8
20260502205703 16 342 3.2 11.3 0.00 0.00 0.00 44 1009.8
20260502204703 16 176 1.6 11.3 0.00 0.00 0.00 43 1009.8
20260502204202 16 245 3.2 11.3 0.00 0.00 0.00 41 1009.8
20260502203703 16 123 0.0 20.9 0.00 0.00 0.00 46 1009.8
20260502203203 16 12 3.2 11.3 0.00 0.00 0.00 42 1009.9
20260502202704 16 196 1.6 11.3 0.00 0.00 0.00 40 1010.2
20260502202203 16 234 3.2 16.1 0.00 0.00 0.00 39 1010.2
20260502201703 16 181 0.0 11.3 0.00 0.00 0.00 41 1010.0
20260502201202 16 3 3.2 16.1 0.00 0.00 0.00 40 1010.2
20260502200203 16 332 6.4 16.1 0.00 0.00 0.00 39 1010.2
20260502195703 16 12 3.2 11.3 0.00 0.00 0.00 39 1010.2
20260502195203 17 100 0.0 8.0 0.00 0.00 0.00 41 1010.2
20260502194703 17 24 4.8 16.1 0.00 0.00 0.00 40 1010.5
20260502194203 17 17 8.0 20.9 0.00 0.00 0.00 41 1010.5
20260502193703 18 37 3.2 11.3 0.00 0.00 0.00 40 1010.5
20260502193203 18 230 3.2 11.3 0.00 0.00 0.00 38 1010.5
20260502192703 18 145 3.2 16.1 0.00 0.00 0.00 39 1010.8
20260502192203 17 204 1.6 16.1 0.00 0.00 0.00 41 1010.8
20260502191703 17 182 3.2 16.1 0.00 0.00 0.00 41 1010.8
20260502191203 17 252 6.4 20.9 0.00 0.00 0.00 39 1010.8
20260502190703 17 165 1.6 16.1 0.00 0.00 0.00 41 1010.8
20260502190204 16 223 3.2 16.1 0.00 0.00 0.00 45 1011.1
20260502185702 16 164 1.6 3.2 0.00 0.00 0.00 46 1011.2
20260502185203 16 59 1.6 8.0 0.00 0.00 0.00 46 1011.2
20260502184703 16 244 3.2 11.3 0.00 0.00 0.00 46 1011.4
20260502184203 16 254 3.2 24.1 0.00 0.00 0.00 45 1011.2
20260502183703 16 170 1.6 8.0 0.00 0.00 0.00 43 1011.5
20260502183203 16 210 3.2 16.1 0.00 0.00 0.00 46 1011.2
20260502182703 16 232 3.2 11.3 0.00 0.00 0.00 47 1011.5
20260502182203 16 112 0.0 8.0 0.00 0.00 0.00 47 1011.2
20260502181703 15 206 3.2 11.3 0.00 0.00 0.00 48 1011.2